Tracking 29967 objects as of 5-Dec-2024
HD Live streaming from Space Station
objects crossing your sky now

STARLINK-31689

Track STARLINK-31689 now!
10-day predictions
STARLINK-31689 is classified as:


NORAD ID: 59567
Int'l Code: 2024-076D
Perigee: 449.9 km
Apogee: 452.5 km
Inclination: 43.0 °
Period: 93.5 minutes
Semi major axis: 6822 km
RCS: Unknown
Launch date: April 23, 2024
Source: United States (US)
Launch site: AIR FORCE EASTERN TEST RANGE (AFETR)
Your satellite tracking list
Your tracking list is empty




NASA's NSSDC Master Catalog

Two Line Element Set (TLE):
1 59567U 24076D   24340.60919621  .00000234  00000-0  12882-4 0  9992
2 59567  43.0042  94.5135 0001933 275.1314  84.9322 15.40694235 36144
Source of the keplerian elements: AFSPC